Regional Weather Roundup
Issued by NWS

Home | Current Version | Previous Version | Graphics & Text | Print | Product List | Glossary Off
Versions: 1 2 3 4 5 6 7 8 9 10 11 12 13 14 15 16 17 18 19 20 21 22 23 24 25 26 27 28 29 30 31 32 33 34 35 36 37 38 39 40 41 42 43 44 45 46 47 48 49 50

000
ASUS43 KLOT 100008
RWRIL

ILLINOIS REGIONAL WEATHER ROUNDUP
NATIONAL WEATHER SERVICE CHICAGO/ROMEOVILLE IL
600 PM CST TUE FEB 09 2016

NOTE: "FAIR" INDICATES FEW OR NO CLOUDS BELOW 12,000 FEET WITH NO
SIGNIFICANT WEATHER AND/OR OBSTRUCTIONS TO VISIBILITY.

* THESE STATIONS ARE NOT UNDER NWS QUALITY CONTROL. THEY ALSO MAY NOT
  REPORT WEATHER SUCH AS PRECIPITATION OR FOG.

ILZ001-002-007-009-015-016-024-100100-
NORTHWEST ILLINOIS

CITY           SKY/WX    TMP DP  RH WIND       PRES   REMARKS
MOLINE         CLEAR     14   2  58 NW12G21   30.05R WCI   0
6HR MIN TEMP:  14; 6HR MAX TEMP:  18;

STERLING*      CLOUDY    16   5  62 NW14      29.98R WCI   1
SAVANNA*       PTCLDY    15   4  62 NW10      30.02R WCI   2
$$

ILZ003-004-008-010-011-017-018-100100-
NORTH CENTRAL ILLINOIS

CITY           SKY/WX    TMP DP  RH WIND       PRES   REMARKS
ROCKFORD       FLURRIES  15   7  70 NW10      29.98R WCI   2
6HR MIN TEMP:  15; 6HR MAX TEMP:  18; 6HR PCP: TRACE;

FREEPORT*      CLOUDY    13   4  65 NW12      29.99R WCI   0
ROCHELLE*      MOCLDY    14   6  70 NW10      29.98R WCI   1
DE KALB*       CLOUDY    14   8  78 NW10      29.95R WCI   1
$$

ILZ005-006-012>014-019>023-100100-
NORTHEAST ILLINOIS

CITY           SKY/WX    TMP DP  RH WIND       PRES   REMARKS
CHICAGO-OHARE  CLOUDY    16   6  65 NW16      29.92R WCI   1
6HR MIN TEMP:  16; 6HR MAX TEMP:  18; 6HR PCP: TRACE;

CHICAGO-MIDWAY FLURRIES  18   6  59 NW12      29.93R WCI   5
6HR MIN TEMP:  18; 6HR MAX TEMP:  19; 6HR PCP: TRACE;

AURORA         MOCLDY    16   8  71 NW15      29.95R WCI   1
6HR MIN TEMP:  16; 6HR MAX TEMP:  18; 6HR PCP: TRACE;

LANSING*       CLOUDY    17   8  67 NW12      29.93R WCI   5
JOLIET*        FLURRIES  19  10  67 NW7       29.96R WCI   9
WAUKEGAN       CLOUDY    15   8  73 NW6       29.91R WCI   6
6HR MIN TEMP:  15; 6HR MAX TEMP:  19; 6HR PCP: TRACE;

DUPAGE AIRPORT CLOUDY    16   6  65 NW15G22   29.93R WCI   1
6HR MIN TEMP:  16; 6HR MAX TEMP:  17; 6HR PCP: TRACE;

KANKAKEE*      CLOUDY    17   8  67 W16       29.95R WCI   2
WHEELING       CLOUDY    16   7  67 NW15      29.93R WCI   1
6HR MIN TEMP:  16; 6HR MAX TEMP:  18; 6HR PCP: TRACE;

MORRIS*        CLOUDY    17  10  74 NW18      29.94R WCI   0
ROMEOVILLE*    MIX PCPN  17   8  70 NW14      29.94R WCI   3
NORTHERLY ISL    N/A     18   8  65 W9          N/A  WCI   7
$$

LMZ740>746-100100-
SOUTHERN LAKE MICHIGAN

STATION/POSITION SKY/WX   TEMP    WIND        PRES    VSBY  WAVE
                          AIR SEA DIR/SP/G                  HT/PER
                          (F)     (DEG/KT/KT) (MB)    (MI)  (FT/S)
HARRISON CRIB              18     300/ 15/ 20   N/A
BURNHAM HARBOR             18     310/  8/ 16   N/A
CALUMET HARBOR             17     280/  9/ 14 1012.1R
BURNS HARBOR               20     300/ 15/ 19 1012.5R
MICHIGAN CITY              20     270/ 22/ 26   N/A
$$

ILZ025>027-034>036-040-047-049-050-058-095>099-100100-
WEST-CENTRAL ILLINOIS

CITY           SKY/WX    TMP DP  RH WIND       PRES   REMARKS
QUINCY         CLEAR     17   5  59 NW15      30.09R WCI   2
GALESBURG*     CLEAR     14   7  73 W13G23    30.04R WCI   0
MACOMB*        CLEAR     16   9  74 NW18G24   30.08R WCI  -1
JACKSONVILLE*  PTCLDY    19  10  65 NW16      30.07R WCI   5
PITTSFIELD*    PTCLDY    19   8  61 NW8       30.09R WCI   9
$$

ILZ028>032-037-038-041>044-048-051>054-059>061-100100-
CENTRAL ILLINOIS

CITY           SKY/WX    TMP DP  RH WIND       PRES   REMARKS
PONTIAC        LGT SNOW  18  15  85 NW14G24   29.98R WCI   5
BLOOMINGTON    CLOUDY    16   8  70 NW16      29.99R WCI   1
DECATUR        LGT SNOW  18  10  71 W16G25    30.01R WCI   3
PEORIA         FLURRIES  16   7  67 NW9G20    30.03R WCI   4
6HR MIN TEMP:  16; 6HR MAX TEMP:  20; 6HR PCP: TRACE;

LACON*         CLOUDY    16   6  64 W15G22    30.01R WCI   1
LINCOLN*       FLURRIES  18  12  78 NW9       30.03R WCI   7
SPRINGFIELD    FLURRIES  19  11  70 NW13      30.05R WCI   6
6HR MIN TEMP:  19; 6HR MAX TEMP:  20; 6HR PCP: TRACE;

TAYLORVILLE    CLOUDY    18  10  73 NW18G24   30.05R WCI   2
$$

ILZ033-039-045-046-055>057-062-063-100100-
EAST-CENTRAL ILLINOIS

CITY           SKY/WX    TMP DP  RH WIND       PRES   REMARKS
CHAMPAIGN      FLURRIES  18  11  74 W17       29.98R WCI   3
RANTOUL*       CLOUDY    19  13  77 NW16      29.97R WCI   4
MATTOON        CLOUDY    17  10  74 W20       29.99R WCI   1
PARIS*         LGT SNOW  18  14  85 NW15G21   29.99R WCI   3
$$

ILZ079-100>102-100100-
SOUTHWEST ILLINOIS

CITY           SKY/WX    TMP DP  RH WIND       PRES   REMARKS
ALTON          PTCLDY    19  10  68 W9        30.07R WCI   9
BELLEVILLE     CLEAR     20  11  67 NW8       30.07R WCI  11
CAHOKIA*       CLEAR     24   9  52 NW12      30.08R WCI  13
SPARTA*        PTCLDY    22  13  69 CALM      30.08R
$$

ILZ064>066-069>071-074>076-080>082-084>086-088>090-092>094-100100-
SOUTH-CENTRAL ILLINOIS

CITY           SKY/WX    TMP DP  RH WIND       PRES   REMARKS
CARBONDALE     MOCLDY    20  12  71 NW6       30.09R WCI  12
6HR MIN TEMP:  20; 6HR MAX TEMP:  22; 6HR PCP: TRACE;

EFFINGHAM*     CLOUDY    19  15  82 W14G21    30.05R WCI   6
MARION         CLOUDY    23  16  74 NW9       30.09R WCI  13
MT. VERNON     CLOUDY    19   9  63 W5        30.07R WCI  13
CENTRALIA*     CLOUDY    22  15  75 NW14G21   30.06R WCI   9
SALEM*         FLURRIES  22  12  67 W15       30.06R WCI   8
METROPOLIS*    CLOUDY    23  17  77 NW3       30.10R
$$

ILZ067-068-072-073-078-083-087-091-100100-
SOUTHEAST ILLINOIS

CITY           SKY/WX    TMP DP  RH WIND       PRES   REMARKS
LAWRENCEVILLE  FLURRIES  20  14  77 W15G24    30.03R WCI   6
FLORA*         CLOUDY    21  13  69 NW16      30.06R WCI   7
FAIRFIELD*     MOCLDY    20  10  64 NW6       30.06R WCI  12
HARRISBURG*    CLOUDY    21  15  75 NW8       30.08R WCI  12
ROBINSON*      CLOUDY    18  11  74 NW15      30.03R WCI   4
CARMI*         LGT SNOW  20  16  82 NW18      30.06R WCI   5
$$

ABBREVIATIONS USED IN REMARKS
   TC - TEMPERATURE IN CELSIUS
  WCI - WIND CHILL INDEX
   HX - HEAT INDEX
  VSB - VISIBILITY
$$




USA.gov is the U.S. government's official web portal to all federal, state and local government web resources and services.